GW7154 Weather Reports


Display with metric or nautical units.
time (UTC)temp
F
wind
direction
speed
MPH
gust
MPH
rain 1hr
in
rain 24hr
in
rain mn
in
humidity
%
barometer
mb
20260504184904 75 116 1.0 1.0 0.00 0.00 0.00 31 1009.8
20260504184400 74 178 1.0 1.0 0.00 0.00 0.00 32 1009.5
20260504183856 74 95 3.0 4.0 0.00 0.00 0.00 32 1009.5
20260504183354 73 149 2.0 2.0 0.00 0.00 0.00 30 1009.5
20260504182851 74 199 3.0 3.0 0.00 0.00 0.00 30 1009.8
20260504182348 74 216 1.0 1.0 0.00 0.00 0.00 34 1009.5
20260504181844 74 250 2.0 2.0 0.00 0.00 0.00 37 1010.2
20260504181342 74 32 0.0 0.0 0.00 0.00 0.00 32 1009.8
20260504180841 73 317 0.0 0.0 0.00 0.00 0.00 33 1010.2
20260504180339 73 270 0.0 0.0 0.00 0.00 0.00 34 1009.8
20260504175837 73 95 2.0 2.0 0.00 0.00 0.00 28 1010.2
20260504175333 72 158 3.0 3.0 0.00 0.00 0.00 35 1010.2
20260504174832 73 226 0.0 0.0 0.00 0.00 0.00 32 1010.2
20260504174329 72 153 1.0 1.0 0.00 0.00 0.00 35 1010.2
20260504173826 72 257 2.0 2.0 0.00 0.00 0.00 30 1010.2
20260504173322 73 179 0.0 0.0 0.00 0.00 0.00 32 1010.5
20260504172819 73 210 4.0 4.0 0.00 0.00 0.00 31 1010.5
20260504172316 73 120 1.0 1.0 0.00 0.00 0.00 29 1010.5
20260504171812 72 49 2.0 2.0 0.00 0.00 0.00 30 1010.5
20260504171309 72 72 0.0 0.0 0.00 0.00 0.00 36 1010.5
20260504170806 72 280 0.0 0.0 0.00 0.00 0.00 36 1010.5
20260504170303 72 307 2.0 2.0 0.00 0.00 0.00 32 1010.8
20260504160221 69 264 1.0 1.0 0.00 0.00 0.00 39 1011.2
20260504151150 69 61 2.0 2.0 0.00 0.00 0.00 39 1011.8
20260504150647 68 78 2.0 2.0 0.00 0.00 0.00 39 1011.8
20260504150144 67 252 2.0 2.0 0.00 0.00 0.00 39 1011.8
20260504141113 66 157 1.0 1.0 0.00 0.00 0.00 49 1011.8
20260504140609 65 324 0.0 0.0 0.00 0.00 0.00 46 1012.2
20260504140105 65 162 2.0 2.0 0.00 0.00 0.00 46 1011.8
20260504130533 62 232 2.0 2.0 0.00 0.00 0.00 55 1012.9
20260504110421 50 175 0.0 0.0 0.00 0.00 0.00 90 1012.5
20260504100337 47 312 0.0 0.0 0.00 0.00 0.00 90 1013.2
20260504081731 45 312 0.0 0.0 0.00 0.00 0.00 86 1013.2
20260504081227 45 312 0.0 0.0 0.00 0.00 0.00 86 1013.2
20260504080724 45 312 0.0 0.0 0.00 0.00 0.00 85 1013.2
20260504080220 45 312 0.0 0.0 0.00 0.00 0.00 85 1013.2
20260504070148 45 190 0.0 0.0 0.00 0.00 0.00 80 1012.9
20260504060108 44 16 0.0 0.0 0.00 0.00 0.00 76 1013.2
20260504050537 44 16 0.0 0.0 0.00 0.00 0.00 73 1013.2
20260504045530 44 16 0.0 0.0 0.00 0.00 0.00 73 1013.5
20260504045026 43 16 0.0 0.0 0.00 0.00 0.00 73 1013.2
20260504044523 44 16 0.0 0.0 0.00 0.00 0.00 73 1013.2
20260504044020 44 16 0.0 0.0 0.00 0.00 0.00 72 1013.2
20260504043517 44 12 0.0 0.0 0.00 0.00 0.00 72 1013.2
20260504043015 44 16 0.0 0.0 0.00 0.00 0.00 71 1013.2
20260504042511 44 16 0.0 0.0 0.00 0.00 0.00 71 1013.2
20260504042008 44 16 0.0 0.0 0.00 0.00 0.00 71 1013.2
20260504041504 44 16 0.0 0.0 0.00 0.00 0.00 70 1012.9
20260504041000 44 16 0.0 0.0 0.00 0.00 0.00 72 1012.9
20260504040458 44 16 0.0 0.0 0.00 0.00 0.00 70 1013.2
20260504035954 44 16 0.0 0.0 0.00 0.00 0.00 69 1013.2
20260504035452 45 16 0.0 0.0 0.00 0.00 0.00 69 1012.9
20260504034948 44 16 0.0 0.0 0.00 0.00 0.00 70 1012.9
20260504034446 44 16 0.0 0.0 0.00 0.00 0.00 69 1012.9
20260504033943 45 16 0.0 0.0 0.00 0.00 0.00 68 1012.9
20260504033440 44 16 0.0 0.0 0.00 0.00 0.00 69 1012.9
20260504032937 45 16 0.0 0.0 0.00 0.00 0.00 69 1012.9
20260504032434 45 16 0.0 0.0 0.00 0.00 0.00 68 1012.5
20260504031931 45 16 0.0 0.0 0.00 0.00 0.00 69 1012.5
20260504031428 45 16 0.0 0.0 0.00 0.00 0.00 69 1012.5
20260504030925 45 16 0.0 0.0 0.00 0.00 0.00 67 1012.5
20260504030421 46 12 0.0 0.0 0.00 0.00 0.00 66 1012.5
20260504025917 46 16 0.0 0.0 0.00 0.00 0.00 66 1012.5
20260504025414 45 16 0.0 0.0 0.00 0.00 0.00 66 1012.5
20260504024911 45 16 0.0 0.0 0.00 0.00 0.00 68 1012.5
20260504024408 46 16 0.0 0.0 0.00 0.00 0.00 68 1012.5
20260504023905 46 16 0.0 0.0 0.00 0.00 0.00 63 1012.5
20260504023402 46 16 0.0 0.0 0.00 0.00 0.00 67 1012.5
20260504022857 46 16 0.0 0.0 0.00 0.00 0.00 62 1012.5
20260504022354 46 16 0.0 0.0 0.00 0.00 0.00 66 1012.5
20260504021851 47 16 0.0 0.0 0.00 0.00 0.00 62 1012.9
20260504021348 47 16 0.0 0.0 0.00 0.00 0.00 61 1012.5
20260504020845 47 16 0.0 0.0 0.00 0.00 0.00 60 1012.5
20260504020342 47 16 0.0 0.0 0.00 0.00 0.00 61 1012.5
20260504015838 47 16 0.0 0.0 0.00 0.00 0.00 61 1012.5
20260504015334 47 16 0.0 0.0 0.00 0.00 0.00 60 1012.5
20260504014830 47 16 0.0 0.0 0.00 0.00 0.00 61 1012.5
20260504014326 47 16 0.0 0.0 0.00 0.00 0.00 61 1012.5
20260504013824 47 16 0.0 0.0 0.00 0.00 0.00 60 1012.5
20260504013322 48 16 0.0 0.0 0.00 0.00 0.00 61 1012.5
20260504012818 48 16 0.0 0.0 0.00 0.00 0.00 62 1012.5
20260504012316 48 16 0.0 0.0 0.00 0.00 0.00 62 1012.5
20260504011813 48 12 0.0 0.0 0.00 0.00 0.00 59 1012.2
20260504011310 48 12 0.0 0.0 0.00 0.00 0.00 59 1012.2
20260504010805 48 16 0.0 0.0 0.00 0.00 0.00 58 1012.2
20260504010301 48 16 0.0 0.0 0.00 0.00 0.00 61 1012.2
20260504005758 48 16 0.0 0.0 0.00 0.00 0.00 59 1012.2
20260504005255 49 16 0.0 0.0 0.00 0.00 0.00 57 1012.2
20260504004753 49 16 0.0 0.0 0.00 0.00 0.00 56 1012.2
20260504004250 49 16 0.0 0.0 0.00 0.00 0.00 55 1012.2
20260504003746 49 16 0.0 0.0 0.00 0.00 0.00 54 1011.8
20260504003244 49 16 0.0 0.0 0.00 0.00 0.00 54 1011.5
20260504002740 50 16 0.0 0.0 0.00 0.00 0.00 53 1011.8
20260504002237 50 16 0.0 0.0 0.00 0.00 0.00 52 1011.8
20260504001735 50 16 0.0 0.0 0.00 0.00 0.00 53 1011.8
20260504001232 50 16 0.0 0.0 0.00 0.00 0.00 52 1011.8
20260504000728 51 16 0.0 0.0 0.00 0.00 0.00 51 1011.5
20260504000226 51 16 0.0 0.0 0.00 0.00 0.00 48 1011.5
20260503235724 52 16 0.0 0.0 0.00 0.00 0.00 49 1011.8
20260503235220 53 16 0.0 0.0 0.00 0.00 0.00 51 1011.5
20260503234718 53 16 0.0 0.0 0.00 0.00 0.00 50 1011.2
20260503234216 54 16 0.0 0.0 0.00 0.00 0.00 44 1011.2
20260503233713 54 16 0.0 0.0 0.00 0.00 0.00 41 1011.5
20260503233208 55 16 0.0 0.0 0.00 0.00 0.00 42 1011.5
20260503232705 55 16 0.0 0.0 0.00 0.00 0.00 40 1011.5
20260503232202 56 16 0.0 0.0 0.00 0.00 0.00 38 1011.2
20260503231701 57 16 0.0 0.0 0.00 0.00 0.00 38 1011.5
20260503231156 57 16 0.0 0.0 0.00 0.00 0.00 38 1011.2
20260503230653 57 16 0.0 0.0 0.00 0.00 0.00 37 1011.5
20260503230151 57 16 0.0 0.0 0.00 0.00 0.00 35 1011.2
20260503225648 57 12 0.0 0.0 0.00 0.00 0.00 36 1011.2
20260503225148 58 196 0.0 0.0 0.00 0.00 0.00 38 1011.2
20260503224645 58 65 2.0 2.0 0.00 0.00 0.00 37 1011.2
20260503224143 58 101 2.0 2.0 0.00 0.00 0.00 35 1011.2
20260503223641 59 0 0.0 0.0 0.00 0.00 0.00 37 1011.2
20260503223137 59 18 2.0 2.0 0.00 0.00 0.00 35 1011.2
20260503222634 59 96 3.0 3.0 0.00 0.00 0.00 37 1011.2
20260503222132 60 330 0.0 0.0 0.00 0.00 0.00 32 1011.2
20260503221630 60 27 0.0 0.0 0.00 0.00 0.00 32 1011.2
20260503221127 60 270 2.0 2.0 0.00 0.00 0.00 32 1011.2
20260503220624 61 139 0.0 0.0 0.00 0.00 0.00 33 1011.2
20260503220120 61 310 2.0 2.0 0.00 0.00 0.00 33 1011.2
20260503215618 62 294 0.0 0.0 0.00 0.00 0.00 31 1011.2
20260503215114 61 294 0.0 0.0 0.00 0.00 0.00 31 1011.2
20260503214613 61 193 0.0 0.0 0.00 0.00 0.00 33 1011.5
20260503214109 61 354 2.0 2.0 0.00 0.00 0.00 31 1011.5
20260503213608 61 294 0.0 0.0 0.00 0.00 0.00 34 1011.2
20260503213104 62 24 6.0 7.0 0.00 0.00 0.00 32 1011.2
20260503212602 61 139 2.0 2.0 0.00 0.00 0.00 33 1011.2
20260503212059 60 108 2.0 2.0 0.00 0.00 0.00 34 1011.2
20260503211556 61 241 1.0 1.0 0.00 0.00 0.00 31 1011.2
20260503211051 61 290 2.0 2.0 0.00 0.00 0.00 31 1011.2
20260503210548 61 306 2.0 2.0 0.00 0.00 0.00 32 1011.2
20260503210044 61 179 2.0 2.0 0.00 0.00 0.00 31 1011.2
20260503205541 61 311 2.0 2.0 0.00 0.00 0.00 35 1011.2
20260503205037 61 239 2.0 2.0 0.00 0.00 0.00 36 1011.2
20260503204534 60 17 0.0 0.0 0.00 0.00 0.00 34 1011.2
20260503204031 59 33 2.0 2.0 0.00 0.00 0.00 33 1011.2
20260503203529 60 238 1.0 1.0 0.00 0.00 0.00 31 1011.2
20260503203026 59 248 2.0 2.0 0.00 0.00 0.00 34 1011.5
20260503202523 60 296 0.0 0.0 0.00 0.00 0.00 33 1011.2
20260503202021 60 24 2.0 2.0 0.00 0.00 0.00 33 1011.2
20260503201519 59 266 0.0 0.0 0.00 0.00 0.00 32 1011.5
20260503201016 60 264 0.0 0.0 0.00 0.00 0.00 34 1011.5
20260503200512 61 288 2.0 2.0 0.00 0.00 0.00 31 1011.5
20260503200009 61 12 0.0 0.0 0.00 0.00 0.00 30 1011.2
20260503195506 60 47 0.0 0.0 0.00 0.00 0.00 31 1011.5
20260503195003 59 356 2.0 2.0 0.00 0.00 0.00 31 1011.5
20260503194500 60 344 4.0 4.0 0.00 0.00 0.00 32 1011.5
20260503193955 59 300 2.0 2.0 0.00 0.00 0.00 33 1011.5
20260503193451 59 186 1.0 1.0 0.00 0.00 0.00 32 1011.8
20260503192946 60 66 2.0 2.0 0.00 0.00 0.00 35 1011.5
20260503192443 59 84 2.0 2.0 0.00 0.00 0.00 37 1011.8
20260503191939 60 12 0.0 0.0 0.00 0.00 0.00 32 1011.8
20260503191437 60 299 4.0 5.0 0.00 0.00 0.00 31 1011.8
20260503190932 58 246 2.0 2.0 0.00 0.00 0.00 34 1012.2
20260503190430 58 349 2.0 2.0 0.00 0.00 0.00 34 1012.2
20260503185927 58 22 6.0 6.0 0.00 0.00 0.00 32 1011.8
20260503185424 59 257 3.0 3.0 0.00 0.00 0.00 32 1011.8